Details for Transavia (Netherlands) at EHEH




Go Back


Latest METAR
Local Time

EHEH 240755Z AUTO 06008KT 020V080 9999 SCT097 OVC100 16/12 Q1019 BLU 06008KT 9999 SCT060CB BKN070

24/05/2018, 10:03:11

Description
Results
Transavia (Netherlands) Logo
Number of Pilots based at EHEH
0 Pilots Based here
Number of Transavia (Netherlands) Flights Departed from EHEH
5 Flights Departed
Number of Transavia (Netherlands) Flights Arrived at EHEH
3 Flights Arrived
Number of Transavia (Netherlands) Schedules Departing from EHEH
99 Schedules
Number of Transavia (Netherlands) Schedules Arriving at EHEH
98 Schedules
Number of Transavia (Netherlands) Schedules Departing from EHEH availible today
15 Schedules Today
Number of Transavia (Netherlands) Schedules Arriving at EHEH availible today
15 Schedules Today
Average Landing Rate at EHEH
-146 fpm
Transavia (Netherlands) Average Landing Rate at EHEH
-159 fpm
Total Fuel Purchased at EHEH by Transavia (Netherlands)
16,238.15 kgs / 35,798.63 lbs

Pilots Based at EHEH


Pilot ID
Pilot Name
Pilot Rank
No. of Flights
No. of Flying Hours
There are no pilots assigned to this hub!   Will you be the first?
Content